When you browse on this site, cookies collect data to enhance your experience and personalize the content and advertising you see.
Visit our Privacy Policy to learn more. By continuing to use the site, you agree to this use of cookies and data.
  • In United Kingdom
  • List of Countries
  • For 7 days
  • Water Temperature
  • Satellite Maps
  • Weather Map
  • Weather Widgets
  • user-avatar
    Login

    Hourly Weather Taba

    Today, 23 March, Saturday

    Time Temperature Precipitation Wind Pressure Humidity
    00:00 +15°C° 0 mm 1 mps 692 mmHg 37%
    01:00 +15°C° 0 mm 2 mps 692 mmHg 39%
    02:00 +15°C° 0 mm 2 mps 692 mmHg 41%
    03:00 +15°C° 0 mm 1 mps 691 mmHg 42%
    04:00 +14°C° 0 mm 1 mps 691 mmHg 43%
    05:00 +14°C° 0 mm 1 mps 691 mmHg 44%
    06:00 +15°C° 0 mm 1 mps 691 mmHg 41%
    07:00 +16°C° 0 mm 1 mps 691 mmHg 37%
    08:00 +16°C° 0 mm 1 mps 691 mmHg 34%
    09:00 +19°C° 0 mm 1 mps 691 mmHg 29%
    10:00 +20°C° 0 mm 1 mps 691 mmHg 25%
    11:00 +21°C° 0 mm 1 mps 691 mmHg 20%
    12:00 +22°C° 0 mm 1 mps 691 mmHg 19%
    13:00 +23°C° 0 mm 2 mps 691 mmHg 17%
    14:00 +24°C° 0 mm 2 mps 691 mmHg 16%
    15:00 +22°C° 0 mm 3 mps 690 mmHg 17%
    16:00 +22°C° 0 mm 3 mps 690 mmHg 19%
    17:00 +21°C° 0 mm 3 mps 690 mmHg 20%
    18:00 +20°C° 0 mm 3 mps 690 mmHg 22%
    19:00 +19°C° 0 mm 3 mps 689 mmHg 24%
    20:00 +18°C° 0 mm 3 mps 689 mmHg 26%
    21:00 +18°C° 0.1 mm 3 mps 689 mmHg 30%
    22:00 +17°C° 0.1 mm 2 mps 688 mmHg 34%
    23:00 +17°C° 0.1 mm 2 mps 688 mmHg 38%

    Tomorrow, 24 March, Sunday

    Time Temperature Precipitation Wind Pressure Humidity
    00:00 +16°C° 0.2 mm 1 mps 687 mmHg 41%
    01:00 +16°C° 0.2 mm 1 mps 687 mmHg 44%
    02:00 +15°C° 0.2 mm 1 mps 686 mmHg 46%
    03:00 +15°C° 0 mm 1 mps 686 mmHg 46%
    04:00 +15°C° 0 mm 1 mps 685 mmHg 45%
    05:00 +14°C° 0 mm 0 mps 685 mmHg 45%
    06:00 +15°C° 0 mm 1 mps 685 mmHg 44%
    07:00 +16°C° 0 mm 2 mps 686 mmHg 44%
    08:00 +16°C° 0 mm 3 mps 686 mmHg 43%
    09:00 +17°C° 0 mm 3 mps 686 mmHg 41%
    10:00 +19°C° 0 mm 3 mps 686 mmHg 38%
    11:00 +20°C° 0 mm 3 mps 686 mmHg 35%
    12:00 +20°C° 0 mm 4 mps 685 mmHg 32%
    13:00 +21°C° 0 mm 5 mps 685 mmHg 29%
    14:00 +22°C° 0 mm 6 mps 685 mmHg 27%
    15:00 +21°C° 0 mm 7 mps 684 mmHg 27%
    16:00 +20°C° 0 mm 8 mps 684 mmHg 28%
    17:00 +18°C° 0 mm 8 mps 684 mmHg 28%
    18:00 +17°C° 0 mm 7 mps 684 mmHg 30%
    19:00 +16°C° 0 mm 7 mps 685 mmHg 33%
    20:00 +15°C° 0 mm 6 mps 685 mmHg 35%
    21:00 +14°C° 0 mm 5 mps 685 mmHg 37%
    22:00 +14°C° 0 mm 4 mps 685 mmHg 39%
    23:00 +13°C° 0 mm 4 mps 685 mmHg 40%

    Day after tomorrow, 25 March, Monday

    Time Temperature Precipitation Wind Pressure Humidity
    00:00 +12°C° 0 mm 4 mps 685 mmHg 47%
    01:00 +12°C° 0 mm 4 mps 685 mmHg 53%
    02:00 +11°C° 0 mm 4 mps 684 mmHg 60%
    03:00 +11°C° 0 mm 4 mps 684 mmHg 65%
    04:00 +9°C° 0 mm 5 mps 684 mmHg 70%
    05:00 +8°C° 0 mm 5 mps 684 mmHg 75%
    06:00 +9°C° 0 mm 6 mps 684 mmHg 68%
    07:00 +9°C° 0 mm 6 mps 685 mmHg 61%
    08:00 +9°C° 0 mm 7 mps 685 mmHg 55%
    09:00 +10°C° 0 mm 7 mps 686 mmHg 49%
    10:00 +11°C° 0 mm 8 mps 686 mmHg 43%
    11:00 +12°C° 0 mm 8 mps 686 mmHg 37%
    12:00 +12°C° 0 mm 9 mps 686 mmHg 36%
    13:00 +12°C° 0 mm 9 mps 686 mmHg 34%
    14:00 +13°C° 0 mm 10 mps 686 mmHg 33%
    15:00 +12°C° 0 mm 10 mps 686 mmHg 34%
    16:00 +11°C° 0 mm 10 mps 686 mmHg 36%
    17:00 +11°C° 0 mm 10 mps 686 mmHg 38%
    18:00 +10°C° 0 mm 8 mps 687 mmHg 40%
    19:00 +9°C° 0 mm 6 mps 687 mmHg 43%
    20:00 +9°C° 0 mm 5 mps 688 mmHg 46%
    21:00 +9°C° 0 mm 3 mps 688 mmHg 48%
    22:00 +9°C° 0 mm 2 mps 688 mmHg 50%
    23:00 +9°C° 0 mm 1 mps 689 mmHg 52%

    26 March, Tuesday

    Time Temperature Precipitation Wind Pressure Humidity
    00:00 +9°C° 0 mm 1 mps 689 mmHg 54%
    01:00 +9°C° 0 mm 1 mps 689 mmHg 56%
    02:00 +8°C° 0 mm 1 mps 688 mmHg 57%
    03:00 +8°C° 0 mm 1 mps 689 mmHg 58%
    04:00 +8°C° 0 mm 1 mps 689 mmHg 58%
    05:00 +8°C° 0 mm 1 mps 689 mmHg 59%
    06:00 +7°C° 0 mm 2 mps 690 mmHg 54%
    07:00 +8°C° 0 mm 2 mps 690 mmHg 50%
    08:00 +9°C° 0 mm 2 mps 691 mmHg 46%
    09:00 +10°C° 0 mm 2 mps 691 mmHg 40%
    10:00 +13°C° 0 mm 2 mps 691 mmHg 35%
    11:00 +14°C° 0 mm 1 mps 691 mmHg 30%
    12:00 +15°C° 0 mm 1 mps 691 mmHg 27%
    13:00 +16°C° 0 mm 1 mps 691 mmHg 24%
    14:00 +18°C° 0 mm 1 mps 691 mmHg 22%
    15:00 +17°C° 0 mm 2 mps 691 mmHg 22%
    16:00 +17°C° 0 mm 2 mps 691 mmHg 22%
    17:00 +17°C° 0 mm 2 mps 691 mmHg 22%
    18:00 +17°C° 0 mm 2 mps 692 mmHg 25%
    19:00 +16°C° 0 mm 1 mps 692 mmHg 28%
    20:00 +15°C° 0 mm 1 mps 692 mmHg 30%
    21:00 +15°C° 0 mm 1 mps 692 mmHg 32%
    22:00 +14°C° 0 mm 1 mps 692 mmHg 34%
    23:00 +13°C° 0 mm 1 mps 692 mmHg 36%

    27 March, Wednesday

    Time Temperature Precipitation Wind Pressure Humidity
    00:00 +13°C° 0 mm 1 mps 692 mmHg 38%
    01:00 +12°C° 0 mm 1 mps 692 mmHg 41%
    02:00 +12°C° 0 mm 1 mps 692 mmHg 43%
    03:00 +11°C° 0 mm 1 mps 692 mmHg 45%
    04:00 +11°C° 0 mm 1 mps 692 mmHg 47%
    05:00 +11°C° 0 mm 1 mps 692 mmHg 49%
    06:00 +12°C° 0 mm 1 mps 693 mmHg 45%
    07:00 +13°C° 0 mm 1 mps 693 mmHg 42%
    08:00 +14°C° 0 mm 1 mps 694 mmHg 38%
    09:00 +15°C° 0 mm 1 mps 694 mmHg 35%
    10:00 +16°C° 0 mm 1 mps 694 mmHg 31%
    11:00 +18°C° 0 mm 1 mps 694 mmHg 27%
    12:00 +19°C° 0 mm 1 mps 694 mmHg 24%
    13:00 +19°C° 0 mm 2 mps 693 mmHg 22%
    14:00 +20°C° 0 mm 2 mps 693 mmHg 20%
    15:00 +20°C° 0 mm 2 mps 693 mmHg 20%
    16:00 +20°C° 0 mm 3 mps 693 mmHg 20%
    17:00 +20°C° 0 mm 3 mps 693 mmHg 20%
    18:00 +19°C° 0 mm 2 mps 693 mmHg 23%
    19:00 +18°C° 0 mm 2 mps 693 mmHg 25%
    20:00 +18°C° 0 mm 1 mps 693 mmHg 28%
    21:00 +18°C° 0 mm 1 mps 693 mmHg 29%
    22:00 +16°C° 0 mm 1 mps 693 mmHg 31%
    23:00 +16°C° 0 mm 1 mps 693 mmHg 32%

    28 March, Thursday

    Time Temperature Precipitation Wind Pressure Humidity
    00:00 +15°C° 0 mm 1 mps 692 mmHg 34%
    01:00 +15°C° 0 mm 1 mps 692 mmHg 36%
    02:00 +14°C° 0 mm 2 mps 692 mmHg 37%
    03:00 +14°C° 0 mm 2 mps 692 mmHg 39%
    04:00 +14°C° 0 mm 2 mps 692 mmHg 41%
    05:00 +13°C° 0 mm 2 mps 691 mmHg 42%
    06:00 +14°C° 0 mm 2 mps 692 mmHg 38%
    07:00 +16°C° 0 mm 3 mps 692 mmHg 34%
    08:00 +17°C° 0 mm 4 mps 692 mmHg 30%
    09:00 +17°C° 0 mm 5 mps 692 mmHg 28%
    10:00 +19°C° 0 mm 6 mps 692 mmHg 25%
    11:00 +21°C° 0 mm 7 mps 692 mmHg 22%
    12:00 +21°C° 0 mm 8 mps 691 mmHg 21%
    13:00 +21°C° 0 mm 9 mps 691 mmHg 20%
    14:00 +22°C° 0 mm 10 mps 690 mmHg 20%
    15:00 +21°C° 0 mm 10 mps 690 mmHg 20%
    16:00 +19°C° 0 mm 10 mps 690 mmHg 20%
    17:00 +19°C° 0 mm 10 mps 690 mmHg 20%
    18:00 +17°C° 0 mm 9 mps 691 mmHg 24%
    19:00 +15°C° 0 mm 8 mps 691 mmHg 29%
    20:00 +14°C° 0 mm 7 mps 691 mmHg 33%
    21:00 +13°C° 0 mm 6 mps 691 mmHg 36%
    22:00 +13°C° 0 mm 4 mps 691 mmHg 38%
    23:00 +12°C° 0 mm 3 mps 691 mmHg 40%
    Show more